Wind_Speed
17 19 18 16 21 21 20 22 23 23 21 19 21 23 22 20 21 22 17 19 14 15 11 9 11 9 9 5 7 3 4 13 11 10 3 4 8 1 2 7 1 5 4 2 23
19 20 19 20 21 18 19 21 23 24 24 23 23 22 21 19 21 19 24 21 22 17 19 13 7 6 5 8 6 5 9 12 6 5 3 3 6 7 6 4 2 2 3 18 23
19 19 21 21 20 20 23 23 23 23 24 23 23 22 21 19 12 7 17 23 12 14 21 15 11 6 15 8 12 11 11 6 7 7 5 3 3 3 7 4 7 13 15 16 17
21 22 22 21 21 22 23 24 24 24 25 24 23 21 19 14 8 3 6 26 19 15 14 16 11 9 9 16 11 10 17 11 7 1 3 2 0 0 4 5 2 6 16 23 18
22 20 22 22 22 23 24 24 25 26 26 25 23 21 19 9 10 35 32 19 8 13 8 9 16 14 15 9 13 18 13 19 9 11 5 0 2 2 5 1 1 12 19 19 17
22 22 22 21 24 25 25 26 27 29 29 26 23 20 13 20 20 24 18 17 8 12 12 7 6 12 8 9 11 5 16 14 15 11 7 6 2 2 0 3 9 16 20 20 20
21 22 23 24 24 26 27 29 29 33 28 24 20 17 9 18 11 19 28 31 24 15 6 9 11 2 3 4 15 6 12 14 17 12 7 5 9 6 3 6 10 13 14 15 18
23 23 23 24 25 27 29 30 31 30 22 17 13 8 5 9 13 18 23 24 23 14 11 11 6 1 4 2 1 12 5 15 11 14 7 13 19 12 6 10 11 14 13 13 17
23 24 25 26 27 27 30 30 28 23 10 12 5 2 7 6 3 10 12 9 8 4 9 3 7 3 9 7 6 7 12 16 7 19 11 10 6 9 7 7 10 14 14 12 11
25 25 25 25 25 25 25 21 22 10 14 3 3 1 4 3 4 4 6 6 2 2 7 7 5 5 8 13 16 12 16 8 18 8 12 16 11 8 10 8 12 14 12 12 12
24 25 25 24 23 22 20 7 7 5 9 4 10 6 13 9 16 9 13 2 4 3 2 7 7 11 11 25 15 14 3 13 5 7 9 16 14 8 9 14 8 11 14 14 13
25 25 23 23 22 12 10 4 4 8 9 8 12 8 15 4 5 7 4 6 7 10 4 4 18 11 10 10 19 7 9 8 3 10 8 8 15 16 11 15 16 15 14 14 12
24 24 23 22 18 9 6 5 14 10 4 7 5 4 5 5 5 7 7 4 4 6 9 9 7 14 13 10 12 13 16 9 8 6 6 8 15 9 13 7 13 7 10 12 17
23 23 23 21 3 12 1 20 18 1 3 6 5 3 1 3 4 6 7 5 3 9 5 6 11 12 14 11 13 13 10 12 8 8 6 10 5 15 16 15 11 18 16 16 17
23 22 21 12 8 5 13 21 7 3 5 10 6 2 13 4 5 1 2 4 6 6 5 7 9 13 17 16 12 5 10 12 11 11 5 7 5 5 15 17 20 17 15 16 16
22 22 17 9 7 12 21 14 1 6 4 7 5 12 11 4 2 4 3 2 1 5 5 5 3 4 11 5 15 3 3 5 8 5 9 7 14 5 10 28 19 17 16 16 15
24 19 11 7 7 22 15 3 5 6 5 9 8 11 12 5 9 2 2 4 4 3 2 3 5 3 9 9 2 12 9 4 7 5 9 5 9 13 13 14 21 19 17 17 16
23 18 4 3 20 14 5 5 7 4 5 5 6 14 4 7 7 9 6 1 6 4 2 5 3 12 7 6 6 16 15 5 6 7 2 4 6 6 5 7 6 10 17 17 19
25 7 1 11 15 8 5 5 6 3 4 8 14 4 4 2 4 6 3 3 4 9 6 5 5 4 12 5 9 9 11 3 3 2 3 3 4 7 4 3 5 6 7 14 16
14 5 4 20 8 2 5 2 2 3 4 3 3 3 5 9 8 9 5 3 5 6 6 2 3 5 6 8 3 3 7 4 3 3 1 2 4 2 1 5 5 7 7 8 12
5 3 6 19 4 5 3 4 4 5 3 3 3 4 5 7 5 4 4 7 8 9 7 2 4 1 11 8 13 5 3 3 4 2 4 4 3 4 2 1 4 4 5 6 8
3 3 12 14 4 2 1 3 4 4 2 3 3 3 3 10 4 3 4 5 13 13 6 5 2 2 8 4 8 4 8 2 3 4 1 0 1 1 3 4 3 3 4 4 6
2 2 6 6 3 3 5 4 2 3 4 4 3 3 5 5 5 4 4 8 10 12 9 2 2 3 6 2 2 4 3 4 5 2 2 1 1 3 2 2 2 2 2 1 5
3 3 4 4 2 3 5 5 6 4 3 4 4 3 8 4 4 7 7 7 23 12 23 4 2 1 3 6 5 6 8 5 4 2 3 3 5 3 3 4 3 4 3 3 4
3 2 3 4 3 3 2 3 4 6 4 4 3 4 6 5 7 2 4 15 11 7 15 5 3 4 3 2 4 6 14 12 9 4 4 8 5 2 2 2 2 3 3 5 6
2 3 3 3 4 4 4 3 2 4 2 5 2 13 8 5 5 15 12 7 6 9 11 7 5 5 7 6 10 6 5 7 4 5 5 8 2 1 1 1 4 5 5 5 5
3 2 2 4 2 2 2 3 4 1 4 7 7 10 7 7 8 18 16 14 15 11 5 5 4 4 3 4 6 5 1 1 3 5 4 4 5 4 3 5 4 5 5 5 5
Wind_Direction
347 344 343 347 342 338 338 335 330 326 322 317 317 312 310 313 312 315 282 250 252 264 251 302 286 292 213 238 197 185 204 223 216 197 219 134 160 215 112 131 223 175 154 208 149
342 340 336 339 332 330 330 329 324 320 317 315 312 310 311 316 320 304 299 260 248 252 256 259 267 264 207 212 206 195 215 217 165 200 221 173 179 167 154 131 207 137 74 140 146
341 344 341 333 331 334 332 326 323 320 318 315 312 310 313 320 321 234 64 29 37 248 261 243 244 226 223 208 217 196 224 183 181 181 233 186 161 200 137 180 213 191 163 156 156
340 335 332 330 331 333 332 325 321 317 314 312 310 305 305 310 278 245 322 345 340 327 321 226 211 209 220 215 208 238 226 229 176 168 190 180 11 300 206 169 144 210 170 168 163
338 335 335 335 331 330 328 322 318 313 312 310 304 301 299 259 242 276 300 322 340 353 4 206 200 207 211 221 222 232 241 221 217 199 153 140 240 223 249 280 163 151 160 176 173
335 333 331 333 332 328 324 322 317 311 311 309 303 296 280 275 271 276 290 296 321 335 315 347 223 218 242 241 220 214 222 228 219 201 193 183 224 292 157 128 134 158 166 173 182
334 337 338 333 329 326 323 321 314 310 313 307 301 282 260 256 252 269 281 289 293 283 280 277 304 227 233 245 238 264 253 229 233 219 204 156 265 214 193 139 149 168 175 170 180
337 334 331 328 329 328 327 321 313 313 317 315 307 281 252 299 290 267 273 283 291 274 232 257 231 244 239 265 223 209 256 236 225 205 188 174 240 209 164 156 166 178 174 176 177
336 337 336 333 329 330 328 321 316 320 331 334 325 127 270 305 268 292 277 253 296 255 205 163 169 230 195 201 198 196 215 209 222 201 173 191 228 215 160 184 178 185 176 172 158
339 337 333 330 331 332 331 333 331 343 344 46 66 43 271 307 307 295 297 274 254 281 165 199 180 227 242 202 203 194 206 216 207 200 191 201 217 259 193 185 193 185 177 176 166
341 339 339 337 334 335 350 349 8 342 7 254 267 272 287 298 304 267 244 222 212 123 246 192 211 204 219 198 213 203 198 213 201 181 169 209 208 211 199 201 188 195 183 185 175
344 341 336 334 334 342 10 55 55 312 311 281 269 246 266 267 293 272 172 192 187 216 189 259 227 227 228 213 212 198 209 209 188 193 194 195 214 212 189 204 206 196 198 186 162
337 338 337 331 331 351 20 46 340 335 280 296 257 264 269 151 263 289 158 179 190 211 214 213 255 196 234 250 190 198 218 210 209 166 169 191 222 210 210 199 194 220 204 188 181
333 336 335 335 1 341 4 334 337 118 49 282 331 304 185 230 271 224 216 174 206 220 193 260 245 245 210 235 207 203 203 216 225 203 230 204 227 205 208 206 199 192 193 194 195
331 334 336 341 314 341 320 329 344 83 41 319 301 257 319 231 285 182 261 211 215 191 152 226 219 222 233 214 192 219 174 210 221 238 231 235 233 200 195 208 212 204 199 197 191
335 332 333 327 314 328 329 330 99 43 296 329 323 327 343 293 261 337 355 62 136 206 244 249 287 239 206 219 219 173 281 215 212 219 234 200 211 193 189 209 208 204 200 191 186
334 336 329 325 322 327 332 47 32 86 348 323 332 329 326 288 314 259 281 224 179 80 220 165 244 287 158 183 275 192 146 226 201 220 230 284 206 236 216 201 206 198 195 187 185
337 330 333 352 334 332 356 50 56 253 282 299 301 309 291 337 323 322 301 245 221 209 285 181 263 176 197 192 161 192 186 177 180 190 172 138 220 221 206 180 194 193 194 186 183
340 345 305 335 339 335 67 52 203 249 308 313 312 317 311 330 339 321 279 254 247 187 212 179 248 148 174 173 144 157 203 198 112 61 151 191 286 277 209 174 185 175 163 182 193
340 327 324 340 339 27 74 266 231 223 312 279 305 14 320 332 345 332 310 337 313 247 218 225 276 202 175 132 97 117 144 138 194 166 192 352 288 252 105 195 199 187 195 180 184
351 24 333 344 352 45 106 226 281 269 290 255 286 286 268 324 284 298 291 305 344 324 220 247 242 186 151 198 171 145 210 139 97 192 164 146 245 223 236 240 193 166 186 191 180
20 10 347 354 43 25 69 242 310 293 312 297 258 264 310 314 288 288 298 289 7 321 297 214 256 223 162 332 148 123 150 165 147 145 78 304 276 25 321 266 242 238 201 197 205
28 279 355 16 70 347 310 305 280 315 317 320 299 350 1 281 312 259 307 295 334 332 342 306 217 117 128 42 137 150 138 119 100 126 7 160 164 25 26 39 51 86 51 211 175
43 359 333 39 80 16 358 326 324 308 285 324 282 322 342 292 251 294 307 313 322 317 341 324 30 81 201 199 121 119 136 126 96 101 193 360 120 9 18 58 38 49 34 56 130
34 291 337 325 341 342 332 295 317 343 333 318 316 16 348 288 301 285 314 327 321 357 340 9 353 6 11 142 111 134 154 159 194 157 150 168 131 191 116 61 55 64 68 89 104
65 32 336 296 332 351 353 282 308 339 286 304 291 318 309 270 276 300 326 325 280 328 333 344 342 2 26 25 124 118 130 120 121 110 47 120 98 106 53 81 67 79 100 97 113
20 354 318 308 349 52 243 258 279 337 285 246 290 312 298 283 300 283 271 266 264 291 310 301 342 5 17 356 82 93 48 183 128 59 116 135 193 137 70 78 41 79 78 117 140
Height
814 812 808 806 805 802 799 797 793 790 786 782 780 777 775 772 769 766 762 759 760 759 761 760 761 760 761 762 759 761 766 757 760 763 757 750 758 756 756 760 761 761 761 761 764
813 811 809 806 801 797 794 792 791 787 784 780 777 774 772 769 765 762 750 750 753 757 759 759 760 760 758 756 757 755 756 750 752 753 752 748 749 752 753 759 762 762 762 763 766
812 810 807 802 799 796 793 790 786 784 781 777 774 772 770 767 764 750 745 748 749 754 754 755 757 758 754 749 749 746 745 746 747 747 748 746 750 749 751 759 756 754 758 762 767
810 807 802 800 798 795 792 788 784 779 777 773 770 768 767 767 767 744 744 748 749 750 747 749 753 753 748 746 741 749 742 741 744 746 747 748 748 750 749 742 746 750 754 757 763
808 804 801 798 795 791 787 783 779 774 771 769 766 765 764 760 756 743 745 750 750 748 747 745 746 747 744 741 742 742 738 739 741 743 746 747 749 749 748 741 744 747 753 758 763
806 803 800 796 793 789 785 779 774 769 766 764 761 760 760 756 748 745 745 747 748 749 747 745 740 740 741 741 743 733 738 739 740 740 744 749 749 749 746 745 746 748 750 755 760
804 801 798 794 790 785 781 776 770 763 760 757 754 754 754 748 744 743 742 742 744 745 744 745 745 744 738 737 735 735 741 738 739 739 745 748 751 750 744 745 747 750 754 757 760
804 800 795 791 787 783 778 773 766 759 756 752 749 749 748 742 741 739 740 739 738 739 742 743 744 744 743 732 732 738 743 746 731 738 742 746 741 742 744 746 748 750 752 757 761
801 798 794 791 786 781 775 768 761 756 752 748 747 748 748 741 739 737 738 739 738 738 740 741 744 740 734 731 735 734 733 735 733 727 736 744 740 737 742 747 749 749 752 755 760
801 796 791 787 782 776 770 763 758 754 753 746 747 751 743 742 739 737 738 738 738 738 739 741 742 736 726 724 723 723 731 731 730 734 732 740 742 738 738 745 749 749 752 755 760
800 796 791 786 779 775 768 760 762 759 758 759 753 752 744 741 739 733 733 735 735 737 740 734 737 724 726 714 714 715 723 726 728 730 730 735 742 739 739 743 748 753 751 752 758
800 793 787 782 778 773 771 770 775 775 762 753 749 748 742 742 741 733 731 736 735 736 737 737 727 722 722 719 718 721 723 727 728 724 732 735 736 736 742 738 741 744 749 750 758
796 791 784 780 777 775 773 775 773 771 769 753 747 745 742 742 737 730 730 732 735 739 736 733 719 717 719 722 720 721 724 725 723 726 734 739 739 739 731 735 734 739 742 749 749
792 788 786 780 779 776 775 775 771 768 788 758 747 741 740 738 736 726 726 728 732 734 737 739 723 722 718 726 713 717 719 724 723 728 735 730 732 730 726 730 735 733 740 744 745
793 787 784 780 778 778 777 772 769 769 812 751 748 740 738 738 729 726 724 725 731 730 732 731 726 721 724 716 716 717 716 722 723 729 732 732 730 714 721 726 722 725 730 731 738
792 788 784 782 779 778 774 770 771 800 821 760 750 748 744 732 728 726 729 725 727 730 728 726 724 720 709 715 712 714 719 721 724 737 727 723 723 720 719 700 708 716 722 727 734
790 787 782 781 780 776 770 769 800 809 770 761 756 751 748 742 727 729 731 724 728 747 752 725 723 717 709 720 721 717 726 729 733 724 714 728 733 709 700 697 696 705 713 721 728
788 785 782 780 777 773 771 784 817 792 780 766 763 755 748 736 733 732 725 722 723 724 723 722 732 716 709 711 713 715 710 717 714 711 717 733 713 699 698 697 700 698 703 712 719
786 783 782 778 772 772 780 812 811 783 776 772 762 757 752 737 741 737 727 722 712 719 720 718 706 703 701 703 702 713 714 710 723 732 716 721 717 703 700 699 703 704 708 710 714
784 781 780 776 771 770 791 797 793 783 777 775 773 766 759 747 754 739 730 722 714 712 712 709 717 695 700 698 704 707 714 717 717 710 706 725 729 699 698 699 702 706 707 709 711
785 786 778 776 773 782 809 809 787 777 776 777 775 765 767 759 751 743 731 719 722 714 709 708 704 697 694 693 696 711 714 715 720 728 702 717 706 711 703 702 701 704 707 710 712
788 799 781 774 792 820 812 791 781 778 774 773 770 769 763 758 759 756 739 726 719 720 705 702 702 693 693 703 687 697 704 710 704 714 730 714 707 710 708 709 707 705 708 709 711
801 797 783 779 813 817 797 791 785 780 777 774 771 769 766 765 760 745 737 722 717 721 710 701 698 696 702 706 700 702 708 715 715 723 716 709 705 708 709 708 707 706 709 710 709
803 809 797 796 803 799 796 797 789 780 779 779 774 769 772 766 754 748 742 728 726 718 709 703 698 700 711 697 701 716 704 712 713 714 717 707 707 705 708 708 707 708 710 710 710
809 819 809 818 813 807 798 798 794 789 782 780 774 773 782 779 762 761 750 739 724 717 716 713 703 701 698 699 696 707 708 710 709 704 697 706 706 704 705 708 710 711 712 713 715
817 817 813 806 805 818 815 817 797 791 792 787 782 775 777 771 765 752 756 750 740 726 725 716 703 704 699 692 687 697 706 706 704 707 710 710 708 704 708 711 713 713 714 716 718
810 813 813 818 813 825 820 814 802 800 790 785 784 782 775 764 762 755 752 749 744 742 732 720 719 715 704 712 697 700 709 705 706 711 713 708 705 710 709 711 710 711 712 714 718